TimeEDT,TemperatureF,Dew PointF,Humidity,Sea Level PressureIn,VisibilityMPH,Wind Direction,Wind SpeedMPH,Gust SpeedMPH,PrecipitationIn,Events,Conditions,WindDirDegrees,DateUTC
12:15 AM,28.6,26.1,90,29.71,7.0,Calm,Calm,-,N/A,,Unknown,0,2013-03-14 04:15:00
12:35 AM,28.8,26.2,90,29.71,7.0,Calm,Calm,-,N/A,,Unknown,0,2013-03-14 04:35:00
12:55 AM,28.4,26.1,91,29.70,7.0,West,3.5,-,N/A,,Unknown,280,2013-03-14 04:55:00
1:15 AM,28.4,25.7,90,29.69,7.0,Calm,Calm,-,N/A,,Unknown,0,2013-03-14 05:15:00
1:35 AM,28.0,24.8,88,29.69,10.0,Calm,Calm,-,N/A,,Unknown,0,2013-03-14 05:35:00
1:55 AM,28.9,24.1,82,29.69,10.0,Calm,Calm,-,N/A,,Unknown,0,2013-03-14 05:55:00
2:15 AM,28.4,23.9,83,29.69,10.0,West,3.5,-,N/A,,Unknown,260,2013-03-14 06:15:00
2:35 AM,28.4,23.0,80,29.69,10.0,West,3.5,-,N/A,,Unknown,280,2013-03-14 06:35:00
2:55 AM,28.8,23.2,80,29.69,5.0,Calm,Calm,-,N/A,Snow,Light Snow,0,2013-03-14 06:55:00
3:15 AM,28.4,24.6,86,29.69,2.0,West,6.9,-,N/A,Snow,Light Snow,280,2013-03-14 07:15:00
3:35 AM,28.0,23.9,84,29.68,3.0,WNW,8.1,-,N/A,Snow,Light Snow,290,2013-03-14 07:35:00
3:55 AM,27.5,23.4,84,29.68,5.0,WNW,4.6,-,N/A,Snow,Light Snow,290,2013-03-14 07:55:00
4:15 AM,27.1,23.0,84,29.67,7.0,West,4.6,-,N/A,Snow,Light Snow,270,2013-03-14 08:15:00
4:35 AM,27.3,22.1,81,29.67,10.0,WSW,3.5,-,N/A,,Unknown,250,2013-03-14 08:35:00
4:55 AM,28.4,20.1,71,29.67,10.0,Calm,Calm,-,N/A,,Unknown,0,2013-03-14 08:55:00
5:15 AM,27.5,21.0,77,29.67,10.0,Calm,Calm,-,N/A,,Unknown,0,2013-03-14 09:15:00
5:35 AM,28.4,17.6,64,29.67,10.0,WNW,4.6,-,N/A,,Unknown,300,2013-03-14 09:35:00
5:55 AM,28.0,17.2,64,29.68,10.0,Calm,Calm,-,N/A,,Unknown,0,2013-03-14 09:55:00
6:15 AM,26.4,21.2,81,29.68,10.0,SE,4.6,-,N/A,,Unknown,130,2013-03-14 10:15:00
6:35 AM,26.4,21.7,82,29.68,10.0,SE,3.5,-,N/A,,Unknown,130,2013-03-14 10:35:00
6:55 AM,26.1,21.7,84,29.68,10.0,SSE,3.5,-,N/A,,Unknown,160,2013-03-14 10:55:00
7:15 AM,26.6,21.2,80,29.68,10.0,South,3.5,-,N/A,,Unknown,190,2013-03-14 11:15:00
7:35 AM,26.6,21.2,80,29.68,7.0,SSW,3.5,-,N/A,,Unknown,210,2013-03-14 11:35:00
7:55 AM,27.1,21.0,78,29.69,10.0,Calm,Calm,-,N/A,,Unknown,0,2013-03-14 11:55:00
8:15 AM,27.0,22.1,82,29.69,2.5,West,10.4,-,N/A,Snow,Light Snow,280,2013-03-14 12:15:00
8:35 AM,26.2,20.3,78,29.69,5.0,West,5.8,-,N/A,Snow,Light Snow,280,2013-03-14 12:35:00
8:55 AM,26.6,19.2,74,29.69,10.0,WNW,5.8,-,N/A,,Unknown,290,2013-03-14 12:55:00
9:15 AM,26.4,18.0,70,29.69,10.0,West,15.0,-,N/A,,Unknown,280,2013-03-14 13:15:00
9:55 AM,25.9,16.0,66,29.70,10.0,West,13.8,19.6,N/A,,Unknown,280,2013-03-14 13:55:00
10:15 AM,26.2,16.9,68,29.70,10.0,West,10.4,17.3,N/A,,Unknown,280,2013-03-14 14:15:00
10:35 AM,26.1,16.7,68,29.70,7.0,West,11.5,20.7,N/A,,Unknown,280,2013-03-14 14:35:00
10:55 AM,25.7,14.4,62,29.70,10.0,West,17.3,21.9,N/A,,Unknown,280,2013-03-14 14:55:00
11:15 AM,26.6,13.5,58,29.70,10.0,West,11.5,19.6,N/A,,Unknown,280,2013-03-14 15:15:00
11:35 AM,26.4,14.9,62,29.70,10.0,WNW,9.2,-,N/A,,Unknown,300,2013-03-14 15:35:00
11:55 AM,-9999,-9999,N/A,-9999,-9999.0,North,-9999.0,-,N/A,,Unknown,0,2013-03-14 15:55:00
12:15 PM,-9999,-9999,N/A,-9999,-9999.0,North,-9999.0,-,N/A,,Unknown,0,2013-03-14 16:15:00
12:35 PM,-9999,-9999,N/A,-9999,-9999.0,North,-9999.0,-,N/A,,Unknown,0,2013-03-14 16:35:00
12:55 PM,27.9,11.8,51,29.69,-9999.0,SW,12.7,24.2,N/A,,Overcast,230,2013-03-14 16:55:00
1:15 PM,26.6,12.6,55,29.70,10.0,SW,15.0,23.0,N/A,,Overcast,230,2013-03-14 17:15:00
1:35 PM,26.6,11.5,53,29.69,10.0,SW,15.0,21.9,N/A,,Overcast,230,2013-03-14 17:35:00
1:55 PM,26.4,10.6,51,29.69,10.0,SW,16.1,25.3,N/A,,Overcast,230,2013-03-14 17:55:00
2:15 PM,25.7,10.2,52,29.69,10.0,SW,12.7,23.0,N/A,,Overcast,230,2013-03-14 18:15:00
2:35 PM,25.5,10.0,52,29.69,10.0,SW,13.8,21.9,N/A,,Mostly Cloudy,230,2013-03-14 18:35:00
2:55 PM,25.0,9.7,52,29.69,10.0,SW,13.8,24.2,N/A,,Mostly Cloudy,230,2013-03-14 18:55:00
3:15 PM,25.9,10.8,53,29.70,10.0,SW,17.3,21.9,N/A,,Overcast,230,2013-03-14 19:15:00
3:35 PM,22.6,9.0,56,29.71,10.0,SW,12.7,23.0,N/A,,Overcast,230,2013-03-14 19:35:00
3:55 PM,22.1,7.9,54,29.72,10.0,SW,16.1,24.2,N/A,,Overcast,230,2013-03-14 19:55:00
4:15 PM,20.8,6.1,53,29.73,10.0,SW,13.8,21.9,N/A,,Overcast,230,2013-03-14 20:15:00
4:35 PM,19.9,6.4,56,29.75,10.0,SW,9.2,17.3,N/A,,Overcast,230,2013-03-14 20:35:00
4:55 PM,20.1,5.2,52,29.75,10.0,SW,13.8,23.0,N/A,,Overcast,230,2013-03-14 20:55:00
5:15 PM,19.6,4.5,52,29.76,10.0,SW,13.8,20.7,N/A,,Overcast,230,2013-03-14 21:15:00
5:35 PM,18.0,4.1,55,29.77,10.0,SW,16.1,19.6,N/A,,Overcast,230,2013-03-14 21:35:00
5:55 PM,17.1,3.2,55,29.78,10.0,SW,13.8,19.6,N/A,,Overcast,230,2013-03-14 21:55:00
6:15 PM,16.2,3.7,58,29.79,10.0,SW,10.4,18.4,N/A,,Overcast,230,2013-03-14 22:15:00
6:35 PM,15.8,4.5,61,29.79,7.0,SW,9.2,-,N/A,,Overcast,230,2013-03-14 22:35:00
6:55 PM,15.6,3.9,60,29.80,10.0,SW,11.5,18.4,N/A,,Overcast,230,2013-03-14 22:55:00
7:15 PM,15.6,3.0,58,29.81,10.0,SW,10.4,-,N/A,,Overcast,230,2013-03-14 23:15:00
7:35 PM,15.4,3.2,59,29.81,10.0,SW,5.8,-,N/A,,Overcast,230,2013-03-14 23:35:00
7:55 PM,15.3,3.9,61,29.81,7.0,SW,8.1,-,N/A,,Overcast,230,2013-03-14 23:55:00
8:15 PM,15.3,2.5,57,29.81,10.0,SW,6.9,-,N/A,,Mostly Cloudy,230,2013-03-15 00:15:00
8:35 PM,14.9,2.3,57,29.82,10.0,SW,4.6,-,N/A,,Scattered Clouds,230,2013-03-15 00:35:00
8:55 PM,14.9,2.1,57,29.82,10.0,SW,10.4,-,N/A,,Scattered Clouds,230,2013-03-15 00:55:00
9:15 PM,14.7,2.3,58,29.82,10.0,SW,5.8,-,N/A,,Mostly Cloudy,230,2013-03-15 01:15:00
9:55 PM,14.4,4.1,64,29.82,10.0,SW,10.4,-,N/A,,Mostly Cloudy,230,2013-03-15 01:55:00
10:15 PM,14.0,5.0,67,29.82,10.0,SW,6.9,-,N/A,,Scattered Clouds,230,2013-03-15 02:15:00
10:35 PM,14.0,5.2,68,29.82,10.0,SW,5.8,-,N/A,,Scattered Clouds,230,2013-03-15 02:35:00
10:55 PM,13.8,5.9,71,29.81,7.0,SW,5.8,-,N/A,,Overcast,230,2013-03-15 02:55:00
11:15 PM,13.8,6.6,73,29.81,4.0,SW,4.6,-,N/A,,Haze,230,2013-03-15 03:15:00
11:35 PM,13.6,6.8,74,29.81,7.0,SW,5.8,-,N/A,Snow,Light Snow,230,2013-03-15 03:35:00
11:55 PM,13.8,6.8,74,29.81,7.0,SW,3.5,-,N/A,,Mostly Cloudy,230,2013-03-15 03:55:00